Presure
226 221 226 228 228 241 239 141 246 244 150 241 232 142 237 139 212 160 173 216 207 216 263 199 253 238 231 220 219 213 207 196 130 203 131 204 169 191
230 208 218 172 191 202 242 229 258 241 235 206 204 234 215 203 244 215 209 257 218 237 220 221 236 235 233 234 240 229 223 176 209 126 163 156 199 198
236 233 229 251 245 179 255 227 192 303 305 286 177 139 237 202 125 169 269 241 253 210 185 238 220 197 251 233 231 221 228 220 216 213 223 147 137 204
223 249 250 163 145 307 319 317 329 332 164 184 133 233 293 285 229 204 178 245 244 208 230 142 219 205 235 249 242 251 230 175 176 202 208 220 208 115
256 204 271 358 353 369 354 352 354 364 361 360 187 285 235 175 293 230 278 243 170 170 173 179 188 214 239 238 221 241 242 250 227 205 182 192 227 196
277 342 385 474 462 457 446 416 419 402 395 401 384 364 342 316 227 307 146 149 124 205 198 149 178 244 211 243 233 233 235 241 241 241 218 202 181 184
478 475 472 471 479 485 495 507 448 417 421 335 405 295 394 150 300 128 219 146 170 254 203 249 237 215 212 181 204 246 247 231 238 246 243 245 248 234
444 439 436 436 442 461 465 480 479 528 474 405 419 409 358 134 373 339 333 140 273 245 202 197 251 201 189 264 188 236 279 246 233 239 225 248 249 119
426 430 442 450 450 457 477 468 496 461 501 502 484 401 387 394 387 372 238 281 234 283 329 282 209 168 242 185 239 175 244 267 280 239 244 241 247 217
429 438 442 442 448 473 496 486 491 485 482 477 489 487 234 380 276 238 377 126 292 203 242 162 333 238 166 252 195 200 177 247 257 244 284 260 245 241
449 439 426 437 456 461 452 497 480 473 460 462 463 469 465 458 400 397 402 388 270 298 308 141 328 258 328 193 151 234 190 248 251 259 257 223 230 255
433 428 433 444 459 448 437 476 479 461 448 446 449 449 453 448 442 425 393 401 393 241 160 152 203 260 280 152 326 245 265 253 210 164 255 266 257 278
466 456 452 450 444 431 412 478 479 457 442 433 433 434 440 439 438 433 436 402 387 356 364 295 274 135 290 344 153 213 225 306 216 192 262 245 282 258
411 439 453 451 423 398 388 437 480 461 445 431 425 421 423 427 431 438 435 433 356 381 143 150 302 283 277 144 314 294 333 255 273 267 199 244 242 247
412 419 429 454 405 385 377 426 486 459 450 437 423 417 411 415 428 455 437 436 426 388 407 372 236 281 296 163 256 325 338 163 275 258 247 247 160 249
414 405 425 440 444 387 378 431 477 488 458 447 433 412 408 406 409 419 453 473 466 446 420 399 152 364 361 351 354 214 128 165 140 143 159 251 264 253
421 420 417 421 446 415 382 404 477 461 472 461 443 418 406 402 405 409 422 442 488 495 443 394 407 365 362 364 352 246 332 299 217 343 140 268 150 232
432 417 410 421 419 446 387 383 397 420 426 431 429 414 407 404 398 402 415 426 481 494 504 429 390 407 364 356 346 346 332 277 310 330 337 243 229 264
454 441 430 426 437 417 405 166 379 386 395 397 403 409 413 418 414 421 421 424 443 476 503 513 387 401 294 356 325 335 339 318 241 328 145 255 274 282
474 469 449 442 438 440 396 391 391 388 387 389 390 396 394 395 397 402 406 419 439 472 490 503 452 393 392 364 328 339 339 334 297 210 330 313 157 221
446 444 431 428 427 419 400 395 393 401 401 387 387 393 400 410 417 420 280 275 452 469 485 494 464 406 396 375 335 335 354 338 318 319 323 234 312 311
432 403 442 436 423 417 411 405 405 405 410 408 391 396 322 104 407 416 433 449 464 473 480 488 470 405 403 376 331 322 335 322 315 317 182 318 205 293
413 419 432 418 400 410 452 425 425 420 418 395 393 396 401 403 411 426 433 442 459 469 473 483 491 397 394 379 344 319 321 317 318 323 152 311 307 297
Wind_Speed
103 101 101 101 102 107 104 66 101 95 81 95 91 58 82 60 88 78 78 79 80 77 85 74 101 99 95 93 89 89 89 84 53 92 49 91 73 89
110 106 107 93 86 99 116 101 117 105 96 88 85 95 85 77 92 92 77 93 85 89 85 80 87 97 97 96 94 94 93 79 93 52 71 64 91 91
118 116 114 135 123 87 130 113 93 122 115 106 90 53 98 83 61 63 88 101 101 86 80 94 86 77 96 95 97 95 98 96 96 96 104 63 55 102
123 142 136 97 77 132 130 130 129 124 80 89 67 84 106 109 95 78 67 101 104 94 98 51 87 83 96 99 99 102 100 84 83 91 94 108 107 44
146 108 145 137 136 129 129 126 122 123 120 116 99 103 84 67 109 85 103 110 62 66 64 78 84 90 100 100 88 100 101 104 96 94 88 90 114 94
148 140 127 93 97 98 100 107 107 108 108 107 107 106 106 104 88 111 59 52 57 87 89 57 75 102 89 107 103 98 97 103 105 103 94 93 83 85
77 76 73 72 70 73 75 76 94 99 100 96 99 91 101 67 98 67 80 72 74 114 94 121 109 90 97 74 86 110 112 97 102 109 103 106 111 111
76 73 72 73 72 68 67 66 71 56 78 96 95 97 96 69 101 103 104 75 97 84 76 88 123 87 81 122 77 96 110 111 97 102 88 111 113 48
75 71 68 67 67 64 57 61 55 63 53 56 68 91 91 98 97 99 97 94 88 95 106 94 93 72 113 69 104 70 109 108 115 101 105 103 106 91
75 70 65 62 60 56 50 49 48 49 49 52 53 58 79 90 72 73 100 72 107 81 83 81 105 114 70 123 76 81 68 104 112 101 114 111 106 99
65 61 62 59 56 51 53 43 44 45 47 48 50 52 59 69 90 92 93 97 94 101 101 75 103 121 107 78 62 103 72 106 104 105 100 84 88 108
59 59 57 56 52 47 52 46 43 39 46 49 48 50 52 59 67 82 89 88 93 79 79 67 74 92 117 73 106 114 124 116 87 62 95 100 98 99
52 51 51 49 46 44 48 45 43 40 44 49 49 47 48 52 58 67 72 83 86 86 96 98 91 60 94 104 75 82 84 104 87 72 102 85 100 90
49 43 43 43 41 41 43 43 45 42 44 47 49 47 48 50 53 55 61 67 71 82 80 86 89 87 78 50 98 91 102 98 121 116 78 85 78 80
48 43 40 38 38 39 41 39 42 45 45 47 49 47 48 48 48 47 52 56 63 74 77 86 91 96 97 63 79 99 97 65 120 103 93 82 66 80
47 43 40 36 34 37 39 35 37 43 47 46 44 45 46 45 44 45 45 47 51 57 69 77 90 88 88 90 94 83 46 59 52 55 59 88 97 87
41 39 36 34 31 33 35 33 30 35 39 41 43 42 42 42 41 42 41 44 49 50 57 71 76 84 83 84 86 72 96 91 63 80 52 103 61 78
37 34 33 32 31 30 29 29 28 29 31 32 32 31 33 35 37 40 40 40 45 49 51 60 71 72 79 81 82 84 90 85 89 82 77 80 75 91
32 30 30 30 29 27 25 19 22 23 22 21 23 26 28 29 30 33 37 39 40 43 44 45 66 67 79 77 82 79 81 88 72 78 55 89 99 93
25 24 25 26 25 24 20 18 18 18 19 20 21 23 25 27 31 34 37 38 40 40 40 43 56 65 69 76 81 78 77 79 77 55 71 77 46 68
23 21 19 18 17 16 17 17 16 16 16 18 21 22 24 25 28 31 33 37 38 38 36 39 47 62 68 74 74 72 75 75 76 73 72 54 75 74
25 20 18 16 14 13 14 15 14 14 14 15 18 20 21 19 25 26 28 29 30 31 31 34 41 59 63 69 73 71 70 73 72 72 45 70 54 73
24 24 22 17 15 13 11 11 11 10 10 11 13 15 17 18 19 20 22 23 24 24 26 29 30 55 59 67 73 71 69 68 68 69 37 69 72 73
Wind_Direction
293 286 287 286 283 288 282 269 278 276 268 273 268 259 245 257 250 259 251 249 242 242 240 243 239 241 242 240 238 234 238 240 246 239 244 239 244 247
293 289 287 275 276 279 283 278 283 277 271 266 266 269 261 250 236 243 256 232 247 239 239 242 241 240 241 241 235 235 234 242 235 247 242 241 245 248
291 286 283 292 286 275 284 279 273 279 273 268 257 244 265 249 256 248 241 238 232 246 248 237 241 240 240 239 239 240 236 237 237 236 234 245 247 242
288 293 291 277 276 287 280 280 277 274 262 262 258 255 256 256 247 248 245 232 234 243 243 247 241 240 239 238 238 239 238 245 245 240 236 235 237 245
294 277 293 284 283 278 278 274 271 269 267 265 259 258 252 237 248 246 243 234 246 245 249 249 247 241 238 239 239 240 239 238 238 241 244 242 234 237
296 292 285 278 275 271 268 268 265 264 263 260 257 255 252 249 243 242 238 247 244 239 242 250 250 235 241 237 238 240 241 240 240 239 238 243 247 248
288 287 287 285 281 277 273 270 263 261 260 258 255 257 251 231 242 236 240 245 244 232 242 234 242 239 239 246 240 238 238 240 240 239 241 239 238 238
290 289 287 286 284 281 274 270 266 266 259 255 254 252 248 240 244 240 239 235 239 246 254 241 235 248 248 230 244 238 236 238 241 241 240 239 240 250
293 292 291 288 286 284 277 271 268 262 263 258 255 250 249 246 245 241 252 233 237 241 239 239 242 235 241 246 242 242 239 237 236 241 242 242 242 243
293 294 292 291 289 285 275 269 266 264 261 258 254 250 251 246 247 248 238 251 242 240 241 246 237 238 230 238 239 240 245 240 241 239 237 238 243 244
292 292 292 291 290 282 275 264 262 261 261 258 256 251 248 246 243 243 240 236 230 231 238 243 233 233 234 236 232 244 245 243 240 242 241 239 242 242
293 291 292 292 288 280 275 267 259 258 258 258 255 253 249 246 246 244 240 237 234 238 219 252 246 242 233 231 231 240 236 240 242 242 244 243 241 239
296 294 293 291 285 278 275 266 262 253 252 255 256 252 251 247 245 244 243 239 235 230 235 228 235 239 231 232 232 236 231 228 243 239 241 239 239 239
303 301 293 290 283 279 277 273 261 255 250 252 254 252 250 249 246 244 243 241 239 230 232 225 232 235 229 236 230 233 230 234 231 238 237 236 238 241
301 299 296 297 278 275 274 272 260 256 249 246 248 251 251 251 250 250 245 243 238 232 234 230 234 231 230 246 230 232 230 249 229 240 240 235 242 243
294 293 299 298 287 276 277 275 266 255 252 248 245 246 248 249 249 250 249 247 238 232 232 231 230 227 226 224 226 239 242 246 252 253 252 242 243 245
291 294 295 291 290 277 274 276 268 263 258 252 249 244 246 248 248 248 245 244 243 240 229 228 227 224 224 225 224 233 226 228 235 228 257 238 251 235
286 287 286 288 286 284 276 277 278 273 267 263 259 255 251 248 244 244 242 239 247 243 240 225 225 224 221 221 222 223 225 230 228 226 225 233 224 241
289 285 286 287 287 285 283 270 272 272 271 267 261 259 258 256 249 245 239 234 233 241 243 239 222 220 223 218 222 222 221 222 236 223 259 238 233 233
298 286 285 286 289 287 282 279 276 268 260 253 250 250 245 239 239 236 234 231 230 236 234 232 217 216 216 215 220 219 219 221 224 236 219 224 237 238
337 326 321 315 309 300 289 282 276 270 258 246 243 241 241 239 235 234 236 236 233 232 230 227 222 212 211 211 215 217 214 216 219 218 216 225 218 221
9 354 347 337 329 313 296 293 287 276 263 250 248 245 248 258 241 241 238 236 235 232 227 222 219 210 209 209 213 216 214 217 216 215 229 214 234 221
12 18 19 7 358 353 332 319 303 288 268 256 253 249 247 245 243 240 236 234 231 224 219 218 219 207 206 206 209 213 214 215 214 214 232 211 214 218